Year,Month,Day,Hour,Minute,Value (Times are PST for temperature in C)
2014,02,20,00,00,2.80
2014,02,20,00,01,2.80
2014,02,20,00,02,2.80
2014,02,20,00,03,2.80
2014,02,20,00,04,2.80
2014,02,20,00,05,2.80
2014,02,20,00,06,2.80
2014,02,20,00,07,2.80
2014,02,20,00,08,2.80
2014,02,20,00,09,2.80
2014,02,20,00,10,2.80
2014,02,20,00,11,2.80
2014,02,20,00,12,2.80
2014,02,20,00,13,2.80
2014,02,20,00,14,2.80
2014,02,20,00,15,2.90
2014,02,20,00,16,2.90
2014,02,20,00,17,2.90
2014,02,20,00,18,2.90
2014,02,20,00,19,2.90
2014,02,20,00,20,2.90
2014,02,20,00,21,2.90
2014,02,20,00,22,2.90
2014,02,20,00,23,2.90
2014,02,20,00,24,2.90
2014,02,20,00,25,2.90
2014,02,20,00,26,2.90
2014,02,20,00,27,2.90
2014,02,20,00,28,2.90
2014,02,20,00,29,2.90
2014,02,20,00,30,2.90
2014,02,20,00,31,2.90
2014,02,20,00,32,2.90
2014,02,20,00,33,2.90
2014,02,20,00,34,2.90
2014,02,20,00,35,3.00
2014,02,20,00,36,3.00
2014,02,20,00,37,3.00
2014,02,20,00,38,3.00
2014,02,20,00,39,3.00
2014,02,20,00,40,3.00
2014,02,20,00,41,3.00
2014,02,20,00,42,3.00
2014,02,20,00,43,3.00
2014,02,20,00,44,3.00
2014,02,20,00,45,3.00
2014,02,20,00,46,3.00
2014,02,20,00,47,3.00
2014,02,20,00,48,3.00
2014,02,20,00,49,3.00
2014,02,20,00,50,3.00
2014,02,20,00,51,3.00
2014,02,20,00,52,3.00
2014,02,20,00,53,3.00
2014,02,20,00,54,3.00
2014,02,20,00,55,3.00
2014,02,20,00,56,3.00
2014,02,20,00,57,3.00
2014,02,20,00,58,3.00
2014,02,20,00,59,3.00
2014,02,20,01,00,3.00
2014,02,20,01,01,3.00
2014,02,20,01,02,3.00
2014,02,20,01,03,3.00
2014,02,20,01,04,3.00
2014,02,20,01,05,3.00
2014,02,20,01,06,3.00
2014,02,20,01,07,2.90
2014,02,20,01,08,2.90
2014,02,20,01,09,2.90
2014,02,20,01,10,3.00
2014,02,20,01,11,3.00
2014,02,20,01,12,3.00
2014,02,20,01,13,3.00
2014,02,20,01,14,3.00
2014,02,20,01,15,3.00
2014,02,20,01,16,3.00
2014,02,20,01,17,3.00
2014,02,20,01,18,3.00
2014,02,20,01,19,3.00
2014,02,20,01,20,3.00
2014,02,20,01,21,2.90
2014,02,20,01,22,2.90
2014,02,20,01,23,2.90
2014,02,20,01,24,2.90
2014,02,20,01,25,2.90
2014,02,20,01,26,2.90
2014,02,20,01,27,2.90
2014,02,20,01,28,2.90
2014,02,20,01,29,2.90
2014,02,20,01,30,2.90
2014,02,20,01,31,2.90
2014,02,20,01,32,2.90
2014,02,20,01,33,3.00
2014,02,20,01,34,3.00
2014,02,20,01,35,3.00
2014,02,20,01,36,3.00
2014,02,20,01,37,3.10
2014,02,20,01,38,3.10
2014,02,20,01,39,3.10
2014,02,20,01,40,3.10
2014,02,20,01,41,3.10
2014,02,20,01,42,3.10
2014,02,20,01,43,3.10
2014,02,20,01,44,3.10
2014,02,20,01,45,3.10
2014,02,20,01,46,3.10
2014,02,20,01,47,3.10
2014,02,20,01,48,3.10
2014,02,20,01,49,3.10
2014,02,20,01,50,3.10
2014,02,20,01,51,3.10
2014,02,20,01,52,3.10
2014,02,20,01,53,3.10
2014,02,20,01,54,3.10
2014,02,20,01,55,3.10
2014,02,20,01,56,3.10
2014,02,20,01,57,3.10
2014,02,20,01,58,3.00
2014,02,20,01,59,3.00
2014,02,20,02,00,3.00
2014,02,20,02,01,3.00
2014,02,20,02,02,2.90
2014,02,20,02,03,2.90
2014,02,20,02,04,2.90
2014,02,20,02,05,2.90
2014,02,20,02,06,2.80
2014,02,20,02,07,2.80
2014,02,20,02,08,2.80
2014,02,20,02,09,2.80
2014,02,20,02,10,2.70
2014,02,20,02,11,2.70
2014,02,20,02,12,2.70
2014,02,20,02,13,2.70
2014,02,20,02,14,2.60
2014,02,20,02,15,2.60
2014,02,20,02,16,2.60
2014,02,20,02,17,2.60
2014,02,20,02,18,2.60
2014,02,20,02,19,2.60
2014,02,20,02,20,2.60
2014,02,20,02,21,2.50
2014,02,20,02,22,2.50
2014,02,20,02,23,2.50
2014,02,20,02,24,2.50
2014,02,20,02,25,2.40
2014,02,20,02,26,2.50
2014,02,20,02,27,2.50
2014,02,20,02,28,2.50
2014,02,20,02,29,2.40
2014,02,20,02,30,2.40
2014,02,20,02,31,2.40
2014,02,20,02,32,2.40
2014,02,20,02,33,2.40
2014,02,20,02,34,2.40
2014,02,20,02,35,2.40
2014,02,20,02,36,2.40
2014,02,20,02,37,2.40
2014,02,20,02,38,2.40
2014,02,20,02,39,2.30
2014,02,20,02,40,2.30
2014,02,20,02,41,2.30
2014,02,20,02,42,2.30
2014,02,20,02,43,2.30
2014,02,20,02,44,2.20
2014,02,20,02,45,2.20
2014,02,20,02,46,2.20
2014,02,20,02,47,2.30
2014,02,20,02,48,2.30
2014,02,20,02,49,2.30
2014,02,20,02,50,2.30
2014,02,20,02,51,2.30
2014,02,20,02,52,2.30
2014,02,20,02,53,2.30
2014,02,20,02,54,2.40
2014,02,20,02,55,2.40
2014,02,20,02,56,2.40
2014,02,20,02,57,2.40
2014,02,20,02,58,2.40
2014,02,20,02,59,2.40
2014,02,20,03,00,2.40
2014,02,20,03,01,2.30
2014,02,20,03,02,2.30
2014,02,20,03,03,2.30
2014,02,20,03,04,2.30
2014,02,20,03,05,2.30
2014,02,20,03,06,2.30
2014,02,20,03,07,2.30
2014,02,20,03,08,2.40
2014,02,20,03,09,2.40
2014,02,20,03,10,2.50
2014,02,20,03,11,2.50
2014,02,20,03,12,2.50
2014,02,20,03,13,2.60
2014,02,20,03,14,2.60
2014,02,20,03,15,2.60
2014,02,20,03,16,2.60
2014,02,20,03,17,2.60
2014,02,20,03,18,2.60
2014,02,20,03,19,2.60
2014,02,20,03,20,2.50
2014,02,20,03,21,2.50
2014,02,20,03,22,2.50
2014,02,20,03,23,2.50
2014,02,20,03,24,2.50
2014,02,20,03,25,2.50
2014,02,20,03,26,2.50
2014,02,20,03,27,2.50
2014,02,20,03,28,2.50
2014,02,20,03,29,2.50
2014,02,20,03,30,2.50
2014,02,20,03,31,2.60
2014,02,20,03,32,2.60
2014,02,20,03,33,2.60
2014,02,20,03,34,2.60
2014,02,20,03,35,2.70
2014,02,20,03,36,2.70
2014,02,20,03,37,2.70
2014,02,20,03,38,2.80
2014,02,20,03,39,2.80
2014,02,20,03,40,2.80
2014,02,20,03,41,2.80
2014,02,20,03,42,2.80
2014,02,20,03,43,2.80
2014,02,20,03,44,2.80
2014,02,20,03,45,2.80
2014,02,20,03,46,2.80
2014,02,20,03,47,2.80
2014,02,20,03,48,2.80
2014,02,20,03,49,2.80
2014,02,20,03,50,2.70
2014,02,20,03,51,2.70
2014,02,20,03,52,2.70
2014,02,20,03,53,2.70
2014,02,20,03,54,2.70
2014,02,20,03,55,2.70
2014,02,20,03,56,2.70
2014,02,20,03,57,2.70
2014,02,20,03,58,2.70
2014,02,20,03,59,2.70
2014,02,20,04,00,2.70
2014,02,20,04,01,2.70
2014,02,20,04,02,2.70
2014,02,20,04,03,2.70
2014,02,20,04,04,2.60
2014,02,20,04,05,2.60
2014,02,20,04,06,2.60
2014,02,20,04,07,2.60
2014,02,20,04,08,2.60
2014,02,20,04,09,2.50
2014,02,20,04,10,2.50
2014,02,20,04,11,2.50
2014,02,20,04,12,2.50
2014,02,20,04,13,2.40
2014,02,20,04,14,2.40
2014,02,20,04,15,2.40
2014,02,20,04,16,2.50
2014,02,20,04,17,2.40
2014,02,20,04,18,2.40
2014,02,20,04,19,2.40
2014,02,20,04,20,2.40
2014,02,20,04,21,2.40
2014,02,20,04,22,2.40
2014,02,20,04,23,2.40
2014,02,20,04,24,2.50
2014,02,20,04,25,2.50
2014,02,20,04,26,2.60
2014,02,20,04,27,2.60
2014,02,20,04,28,2.60
2014,02,20,04,29,2.50
2014,02,20,04,30,2.50
2014,02,20,04,31,2.40
2014,02,20,04,32,2.40
2014,02,20,04,33,2.40
2014,02,20,04,34,2.30
2014,02,20,04,35,2.30
2014,02,20,04,36,2.30
2014,02,20,04,37,2.40
2014,02,20,04,38,2.40
2014,02,20,04,39,2.50
2014,02,20,04,40,2.50
2014,02,20,04,41,2.60
2014,02,20,04,42,2.60
2014,02,20,04,43,2.60
2014,02,20,04,44,2.70
2014,02,20,04,45,2.70
2014,02,20,04,46,2.80
2014,02,20,04,47,2.80
2014,02,20,04,48,2.80
2014,02,20,04,49,2.80
2014,02,20,04,50,2.80
2014,02,20,04,51,2.80
2014,02,20,04,52,2.80
2014,02,20,04,53,2.80
2014,02,20,04,54,2.80
2014,02,20,04,55,2.80
2014,02,20,04,56,2.80
2014,02,20,04,57,2.70
2014,02,20,04,58,2.70
2014,02,20,04,59,2.80
2014,02,20,05,00,2.90
2014,02,20,05,01,3.00
2014,02,20,05,02,3.10
2014,02,20,05,03,3.20
2014,02,20,05,04,3.20
2014,02,20,05,05,3.20
2014,02,20,05,06,3.20
2014,02,20,05,07,3.20
2014,02,20,05,08,3.20
2014,02,20,05,09,3.20
2014,02,20,05,10,3.30
2014,02,20,05,11,3.30
2014,02,20,05,12,3.30
2014,02,20,05,13,3.30
2014,02,20,05,14,3.20
2014,02,20,05,15,3.20
2014,02,20,05,16,3.20
2014,02,20,05,17,3.10
2014,02,20,05,18,3.10
2014,02,20,05,19,3.00
2014,02,20,05,20,2.90
2014,02,20,05,21,2.80
2014,02,20,05,22,2.80
2014,02,20,05,23,2.80
2014,02,20,05,24,2.70
2014,02,20,05,25,2.70
2014,02,20,05,26,2.60
2014,02,20,05,27,2.60
2014,02,20,05,28,2.50
2014,02,20,05,29,2.50
2014,02,20,05,30,2.40
2014,02,20,05,31,2.40
2014,02,20,05,32,2.30
2014,02,20,05,33,2.30
2014,02,20,05,34,2.30
2014,02,20,05,35,2.30
2014,02,20,05,36,2.30
2014,02,20,05,37,2.30
2014,02,20,05,38,2.30
2014,02,20,05,39,2.30
2014,02,20,05,40,2.30
2014,02,20,05,41,2.20
2014,02,20,05,42,2.20
2014,02,20,05,43,2.20
2014,02,20,05,44,2.10
2014,02,20,05,45,2.10
2014,02,20,05,46,2.10
2014,02,20,05,47,2.10
2014,02,20,05,48,2.00
2014,02,20,05,49,2.00
2014,02,20,05,50,2.00
2014,02,20,05,51,1.90
2014,02,20,05,52,1.90
2014,02,20,05,53,1.90
2014,02,20,05,54,1.90
2014,02,20,05,55,1.90
2014,02,20,05,56,1.80
2014,02,20,05,57,1.80
2014,02,20,05,58,1.80
2014,02,20,05,59,1.80
2014,02,20,06,00,1.70
2014,02,20,06,01,1.70
2014,02,20,06,02,1.70
2014,02,20,06,03,1.70
2014,02,20,06,04,1.70
2014,02,20,06,05,1.70
2014,02,20,06,06,1.70
2014,02,20,06,07,1.70
2014,02,20,06,08,1.70
2014,02,20,06,09,1.70
2014,02,20,06,10,1.70
2014,02,20,06,11,1.70
2014,02,20,06,12,1.70
2014,02,20,06,13,1.70
2014,02,20,06,14,1.70
2014,02,20,06,15,1.60
2014,02,20,06,16,1.60
2014,02,20,06,17,1.60
2014,02,20,06,18,1.60
2014,02,20,06,19,1.60
2014,02,20,06,20,1.60
2014,02,20,06,21,1.70
2014,02,20,06,22,1.70
2014,02,20,06,23,1.80
2014,02,20,06,24,1.90
2014,02,20,06,25,1.90
2014,02,20,06,26,2.00
2014,02,20,06,27,2.20
2014,02,20,06,28,2.50
2014,02,20,06,29,2.60
2014,02,20,06,30,2.80
2014,02,20,06,31,2.90
2014,02,20,06,32,3.00
2014,02,20,06,33,3.10
2014,02,20,06,34,3.20
2014,02,20,06,35,3.30
2014,02,20,06,36,3.30
2014,02,20,06,37,3.40
2014,02,20,06,38,3.50
2014,02,20,06,39,3.60
2014,02,20,06,40,3.80
2014,02,20,06,41,4.00
2014,02,20,06,42,4.10
2014,02,20,06,43,4.30
2014,02,20,06,44,4.50
2014,02,20,06,45,4.70
2014,02,20,06,46,4.80
2014,02,20,06,47,5.00
2014,02,20,06,48,5.10
2014,02,20,06,49,5.10
2014,02,20,06,50,5.20
2014,02,20,06,51,5.30
2014,02,20,06,52,5.30
2014,02,20,06,53,5.30
2014,02,20,06,54,5.40
2014,02,20,06,55,5.40
2014,02,20,06,56,5.40
2014,02,20,06,57,5.40
2014,02,20,06,58,5.40
2014,02,20,06,59,5.40
2014,02,20,07,00,5.40
2014,02,20,07,01,5.40
2014,02,20,07,02,5.40
2014,02,20,07,03,5.40
2014,02,20,07,04,5.40
2014,02,20,07,05,5.40
2014,02,20,07,06,5.40
2014,02,20,07,07,5.30
2014,02,20,07,08,5.30
2014,02,20,07,09,5.30
2014,02,20,07,10,5.20
2014,02,20,07,11,5.20
2014,02,20,07,12,5.20
2014,02,20,07,13,5.20
2014,02,20,07,14,5.10
2014,02,20,07,15,5.10
2014,02,20,07,16,5.10
2014,02,20,07,17,5.10
2014,02,20,07,18,5.10
2014,02,20,07,19,5.10
2014,02,20,07,20,5.10
2014,02,20,07,21,5.10
2014,02,20,07,22,5.10
2014,02,20,07,23,5.00
2014,02,20,07,24,5.00
2014,02,20,07,25,5.00
2014,02,20,07,26,5.00
2014,02,20,07,27,4.90
2014,02,20,07,28,4.90
2014,02,20,07,29,5.00
2014,02,20,07,30,5.00
2014,02,20,07,31,4.90
2014,02,20,07,32,5.00
2014,02,20,07,33,4.90
2014,02,20,07,34,4.90
2014,02,20,07,35,4.90
2014,02,20,07,36,4.90
2014,02,20,07,37,4.90
2014,02,20,07,38,4.90
2014,02,20,07,39,4.90
2014,02,20,07,40,4.90
2014,02,20,07,41,4.90
2014,02,20,07,42,4.90
2014,02,20,07,43,4.90
2014,02,20,07,44,4.90
2014,02,20,07,45,4.90
2014,02,20,07,46,4.90
2014,02,20,07,47,4.80
2014,02,20,07,48,4.80
2014,02,20,07,49,4.80
2014,02,20,07,50,4.80
2014,02,20,07,51,4.80
2014,02,20,07,52,4.80
2014,02,20,07,53,4.80
2014,02,20,07,54,4.80
2014,02,20,07,55,4.80
2014,02,20,07,56,4.80
2014,02,20,07,57,4.80
2014,02,20,07,58,4.80
2014,02,20,07,59,4.80
2014,02,20,08,00,4.80
2014,02,20,08,01,4.80
2014,02,20,08,02,4.80
2014,02,20,08,03,4.90
2014,02,20,08,04,4.90
2014,02,20,08,05,5.00
2014,02,20,08,06,5.10
2014,02,20,08,07,5.10
2014,02,20,08,08,5.10
2014,02,20,08,09,5.10
2014,02,20,08,10,5.10
2014,02,20,08,11,5.10
2014,02,20,08,12,5.10
2014,02,20,08,13,5.20
2014,02,20,08,14,5.10
2014,02,20,08,15,5.10
2014,02,20,08,16,5.20
2014,02,20,08,17,5.20
2014,02,20,08,18,5.20
2014,02,20,08,19,5.10
2014,02,20,08,20,5.10
2014,02,20,08,21,5.20
2014,02,20,08,22,5.20
2014,02,20,08,23,5.20
2014,02,20,08,24,5.20
2014,02,20,08,25,5.20
2014,02,20,08,26,5.30
2014,02,20,08,27,5.30
2014,02,20,08,28,5.30
2014,02,20,08,29,5.40
2014,02,20,08,30,5.50
2014,02,20,08,31,5.50
2014,02,20,08,32,5.60
2014,02,20,08,33,5.60
2014,02,20,08,34,5.70
2014,02,20,08,35,5.70
2014,02,20,08,36,5.80
2014,02,20,08,37,5.80
2014,02,20,08,38,5.90
2014,02,20,08,39,6.00
2014,02,20,08,40,6.00
2014,02,20,08,41,6.10
2014,02,20,08,42,6.10
2014,02,20,08,43,6.10
2014,02,20,08,44,6.20
2014,02,20,08,45,6.20
2014,02,20,08,46,6.20
2014,02,20,08,47,6.20
2014,02,20,08,48,6.20
2014,02,20,08,49,6.20
2014,02,20,08,50,6.20
2014,02,20,08,51,6.20
2014,02,20,08,52,6.30
2014,02,20,08,53,6.40
2014,02,20,08,54,6.40
2014,02,20,08,55,6.40
2014,02,20,08,56,6.50
2014,02,20,08,57,6.60
2014,02,20,08,58,6.60
2014,02,20,08,59,6.70
2014,02,20,09,00,6.80
2014,02,20,09,01,6.80
2014,02,20,09,02,6.80
2014,02,20,09,03,6.90
2014,02,20,09,04,6.90
2014,02,20,09,05,7.00
2014,02,20,09,06,7.00
2014,02,20,09,07,7.10
2014,02,20,09,08,7.20
2014,02,20,09,09,7.20
2014,02,20,09,10,7.20
2014,02,20,09,11,7.30
2014,02,20,09,12,7.40
2014,02,20,09,13,7.40
2014,02,20,09,14,7.40
2014,02,20,09,15,7.40
2014,02,20,09,16,7.40
2014,02,20,09,17,7.40
2014,02,20,09,18,7.40
2014,02,20,09,19,7.40
2014,02,20,09,20,7.30
2014,02,20,09,21,7.20
2014,02,20,09,22,7.20
2014,02,20,09,23,7.10
2014,02,20,09,24,7.00
2014,02,20,09,25,7.00
2014,02,20,09,26,6.90
2014,02,20,09,27,6.80
2014,02,20,09,28,6.70
2014,02,20,09,29,6.70
2014,02,20,09,30,6.60
2014,02,20,09,31,6.60
2014,02,20,09,32,6.50
2014,02,20,09,33,6.40
2014,02,20,09,34,6.40
2014,02,20,09,35,6.40
2014,02,20,09,36,6.40
2014,02,20,09,37,6.40
2014,02,20,09,38,6.40
2014,02,20,09,39,6.50
2014,02,20,09,40,6.60
2014,02,20,09,41,6.60
2014,02,20,09,42,6.70
2014,02,20,09,43,6.80
2014,02,20,09,44,6.90
2014,02,20,09,45,7.00
2014,02,20,09,46,7.10
2014,02,20,09,47,7.10
2014,02,20,09,48,7.20
2014,02,20,09,49,7.20
2014,02,20,09,50,7.20
2014,02,20,09,51,7.20
2014,02,20,09,52,7.20
2014,02,20,09,53,7.20
2014,02,20,09,54,7.20
2014,02,20,09,55,7.20
2014,02,20,09,56,7.20
2014,02,20,09,57,7.20
2014,02,20,09,58,7.20
2014,02,20,09,59,7.10
2014,02,20,10,00,7.10
2014,02,20,10,01,7.10
2014,02,20,10,02,7.10
2014,02,20,10,03,7.10
2014,02,20,10,04,7.10
2014,02,20,10,05,7.20
2014,02,20,10,06,7.20
2014,02,20,10,07,7.20
2014,02,20,10,08,7.20
2014,02,20,10,09,7.20
2014,02,20,10,10,7.20
2014,02,20,10,11,7.20
2014,02,20,10,12,7.20
2014,02,20,10,13,7.20
2014,02,20,10,14,7.20
2014,02,20,10,15,7.20
2014,02,20,10,16,7.20
2014,02,20,10,17,7.10
2014,02,20,10,18,7.10
2014,02,20,10,19,7.00
2014,02,20,10,20,7.00
2014,02,20,10,21,6.90
2014,02,20,10,22,6.90
2014,02,20,10,23,6.90
2014,02,20,10,24,6.90
2014,02,20,10,25,7.00
2014,02,20,10,26,7.00
2014,02,20,10,27,7.00
2014,02,20,10,28,7.10
2014,02,20,10,29,7.10
2014,02,20,10,30,7.20
2014,02,20,10,31,7.20
2014,02,20,10,32,7.30
2014,02,20,10,33,7.30
2014,02,20,10,34,7.30
2014,02,20,10,35,7.40
2014,02,20,10,36,7.40
2014,02,20,10,37,7.40
2014,02,20,10,38,7.40
2014,02,20,10,39,7.40
2014,02,20,10,40,7.40
2014,02,20,10,41,7.50
2014,02,20,10,42,7.50
2014,02,20,10,43,7.60
2014,02,20,10,44,7.60
2014,02,20,10,45,7.60
2014,02,20,10,46,7.50
2014,02,20,10,47,7.50
2014,02,20,10,48,7.50
2014,02,20,10,49,7.50
2014,02,20,10,50,7.50
2014,02,20,10,51,7.40
2014,02,20,10,52,7.50
2014,02,20,10,53,7.50
2014,02,20,10,54,7.50
2014,02,20,10,55,7.50
2014,02,20,10,56,7.60
2014,02,20,10,57,7.60
2014,02,20,10,58,7.70
2014,02,20,10,59,7.70
2014,02,20,11,00,7.70
2014,02,20,11,01,7.70
2014,02,20,11,02,7.60
2014,02,20,11,03,7.60
2014,02,20,11,04,7.60
2014,02,20,11,05,7.50
2014,02,20,11,06,7.50
2014,02,20,11,07,7.50
2014,02,20,11,08,7.50
2014,02,20,11,09,7.50
2014,02,20,11,10,7.40
2014,02,20,11,11,7.40
2014,02,20,11,12,7.30
2014,02,20,11,13,7.20
2014,02,20,11,14,7.20
2014,02,20,11,15,7.20
2014,02,20,11,16,7.20
2014,02,20,11,17,7.20
2014,02,20,11,18,7.20
2014,02,20,11,19,7.20
2014,02,20,11,20,7.30
2014,02,20,11,21,7.30
2014,02,20,11,22,7.30
2014,02,20,11,23,7.20
2014,02,20,11,24,7.20
2014,02,20,11,25,7.10
2014,02,20,11,26,7.00
2014,02,20,11,27,7.00
2014,02,20,11,28,6.90
2014,02,20,11,29,6.90
2014,02,20,11,30,6.90
2014,02,20,11,31,7.00
2014,02,20,11,32,7.10
2014,02,20,11,33,7.10
2014,02,20,11,34,7.20
2014,02,20,11,35,7.30
2014,02,20,11,36,7.40
2014,02,20,11,37,7.50
2014,02,20,11,38,7.60
2014,02,20,11,39,7.60
2014,02,20,11,40,7.60
2014,02,20,11,41,7.60
2014,02,20,11,42,7.70
2014,02,20,11,43,7.80
2014,02,20,11,44,7.80
2014,02,20,11,45,7.80
2014,02,20,11,46,7.90
2014,02,20,11,47,7.90
2014,02,20,11,48,7.90
2014,02,20,11,49,8.00
2014,02,20,11,50,8.00
2014,02,20,11,51,8.00
2014,02,20,11,52,8.00
2014,02,20,11,53,8.00
2014,02,20,11,54,7.90
2014,02,20,11,55,7.90
2014,02,20,11,56,7.80
2014,02,20,11,57,7.80
2014,02,20,11,58,7.70
2014,02,20,11,59,7.60
2014,02,20,12,00,7.60
2014,02,20,12,01,7.50
2014,02,20,12,02,7.50
2014,02,20,12,03,7.40
2014,02,20,12,04,7.50
2014,02,20,12,05,7.50
2014,02,20,12,06,7.60
2014,02,20,12,07,7.60
2014,02,20,12,08,7.60
2014,02,20,12,09,7.70
2014,02,20,12,10,7.60
2014,02,20,12,11,7.60
2014,02,20,12,12,7.60
2014,02,20,12,13,7.60
2014,02,20,12,14,7.50
2014,02,20,12,15,7.60
2014,02,20,12,16,7.60
2014,02,20,12,17,7.60
2014,02,20,12,18,7.60
2014,02,20,12,19,7.60
2014,02,20,12,20,7.60
2014,02,20,12,21,7.60
2014,02,20,12,22,7.60
2014,02,20,12,23,7.60
2014,02,20,12,24,7.60
2014,02,20,12,25,7.60
2014,02,20,12,26,7.60
2014,02,20,12,27,7.60
2014,02,20,12,28,7.70
2014,02,20,12,29,7.70
2014,02,20,12,30,7.80
2014,02,20,12,31,7.80
2014,02,20,12,32,7.80
2014,02,20,12,33,7.90
2014,02,20,12,34,7.90
2014,02,20,12,35,7.90
2014,02,20,12,36,7.90
2014,02,20,12,37,7.90
2014,02,20,12,38,8.00
2014,02,20,12,39,8.00
2014,02,20,12,40,8.10
2014,02,20,12,41,8.10
2014,02,20,12,42,8.20
2014,02,20,12,43,8.20
2014,02,20,12,44,8.20
2014,02,20,12,45,8.20
2014,02,20,12,46,8.20
2014,02,20,12,47,8.20
2014,02,20,12,48,8.30
2014,02,20,12,49,8.30
2014,02,20,12,50,8.30
2014,02,20,12,51,8.30
2014,02,20,12,52,8.20
2014,02,20,12,53,8.20
2014,02,20,12,54,8.10
2014,02,20,12,55,8.10
2014,02,20,12,56,8.10
2014,02,20,12,57,8.10
2014,02,20,12,58,8.10
2014,02,20,12,59,8.20
2014,02,20,13,00,8.20
2014,02,20,13,01,8.20
2014,02,20,13,02,8.30
2014,02,20,13,03,8.30
2014,02,20,13,04,8.40
2014,02,20,13,05,8.50
2014,02,20,13,06,8.50
2014,02,20,13,07,8.60
2014,02,20,13,08,8.80
2014,02,20,13,09,8.90
2014,02,20,13,10,9.10
2014,02,20,13,11,9.20
2014,02,20,13,12,9.40
2014,02,20,13,13,9.40
2014,02,20,13,14,9.50
2014,02,20,13,15,9.60
2014,02,20,13,16,9.60
2014,02,20,13,17,9.70
2014,02,20,13,18,9.70
2014,02,20,13,19,9.80
2014,02,20,13,20,9.80
2014,02,20,13,21,9.90
2014,02,20,13,22,10.00
2014,02,20,13,23,10.00
2014,02,20,13,24,10.10
2014,02,20,13,25,10.20
2014,02,20,13,26,10.20
2014,02,20,13,27,10.20
2014,02,20,13,28,10.30
2014,02,20,13,29,10.30
2014,02,20,13,30,10.30
2014,02,20,13,31,10.40
2014,02,20,13,32,10.50
2014,02,20,13,33,10.50
2014,02,20,13,34,10.40
2014,02,20,13,35,10.40
2014,02,20,13,36,10.40
2014,02,20,13,37,10.40
2014,02,20,13,38,10.40
2014,02,20,13,39,10.40
2014,02,20,13,40,10.40
2014,02,20,13,41,10.40
2014,02,20,13,42,10.40
2014,02,20,13,43,10.40
2014,02,20,13,44,10.30
2014,02,20,13,45,10.30
2014,02,20,13,46,10.20
2014,02,20,13,47,10.20
2014,02,20,13,48,10.20
2014,02,20,13,49,10.20
2014,02,20,13,50,10.10
2014,02,20,13,51,10.20
2014,02,20,13,52,10.20
2014,02,20,13,53,10.20
2014,02,20,13,54,10.30
2014,02,20,13,55,10.30
2014,02,20,13,56,10.30
2014,02,20,13,57,10.40
2014,02,20,13,58,10.40
2014,02,20,13,59,10.50
2014,02,20,14,00,10.50
2014,02,20,14,01,10.50
2014,02,20,14,02,10.60
2014,02,20,14,03,10.60
2014,02,20,14,04,10.50
2014,02,20,14,05,10.40
2014,02,20,14,06,10.20
2014,02,20,14,07,10.20
2014,02,20,14,08,10.10
2014,02,20,14,09,10.10
2014,02,20,14,10,10.10
2014,02,20,14,11,10.10
2014,02,20,14,12,10.10
2014,02,20,14,13,10.10
2014,02,20,14,14,10.20
2014,02,20,14,15,10.10
2014,02,20,14,16,9.90
2014,02,20,14,17,9.80
2014,02,20,14,18,9.70
2014,02,20,14,19,9.70
2014,02,20,14,20,9.60
2014,02,20,14,21,9.60
2014,02,20,14,22,9.50
2014,02,20,14,23,9.50
2014,02,20,14,24,9.60
2014,02,20,14,25,9.60
2014,02,20,14,26,9.60
2014,02,20,14,27,9.70
2014,02,20,14,28,9.70
2014,02,20,14,29,9.80
2014,02,20,14,30,9.80
2014,02,20,14,31,9.70
2014,02,20,14,32,9.70
2014,02,20,14,33,9.70
2014,02,20,14,34,9.70
2014,02,20,14,35,9.60
2014,02,20,14,36,9.60
2014,02,20,14,37,9.60
2014,02,20,14,38,9.60
2014,02,20,14,39,9.70
2014,02,20,14,40,9.80
2014,02,20,14,41,9.80
2014,02,20,14,42,9.80
2014,02,20,14,43,9.70
2014,02,20,14,44,9.70
2014,02,20,14,45,9.70
2014,02,20,14,46,9.70
2014,02,20,14,47,9.70
2014,02,20,14,48,9.70
2014,02,20,14,49,9.60
2014,02,20,14,50,9.60
2014,02,20,14,51,9.60
2014,02,20,14,52,9.60
2014,02,20,14,53,9.60
2014,02,20,14,54,9.70
2014,02,20,14,55,9.60
2014,02,20,14,56,9.50
2014,02,20,14,57,9.50
2014,02,20,14,58,9.50
2014,02,20,14,59,9.50
2014,02,20,15,00,9.60
2014,02,20,15,01,9.60
2014,02,20,15,02,9.60
2014,02,20,15,03,9.60
2014,02,20,15,04,9.60
2014,02,20,15,05,9.60
2014,02,20,15,06,9.60
2014,02,20,15,07,9.60
2014,02,20,15,08,9.60
2014,02,20,15,09,9.60
2014,02,20,15,10,9.60
2014,02,20,15,11,9.60
2014,02,20,15,12,9.60
2014,02,20,15,13,9.60
2014,02,20,15,14,9.60
2014,02,20,15,15,9.70
2014,02,20,15,16,9.60
2014,02,20,15,17,9.60
2014,02,20,15,18,9.60
2014,02,20,15,19,9.60
2014,02,20,15,20,9.60
2014,02,20,15,21,9.60
2014,02,20,15,22,9.50
2014,02,20,15,23,9.50
2014,02,20,15,24,9.50
2014,02,20,15,25,9.50
2014,02,20,15,26,9.50
2014,02,20,15,27,9.50
2014,02,20,15,28,9.50
2014,02,20,15,29,9.50
2014,02,20,15,30,9.50
2014,02,20,15,31,9.50
2014,02,20,15,32,9.50
2014,02,20,15,33,9.50
2014,02,20,15,34,9.50
2014,02,20,15,35,9.40
2014,02,20,15,36,9.30
2014,02,20,15,37,9.20
2014,02,20,15,38,9.20
2014,02,20,15,39,9.10
2014,02,20,15,40,9.10
2014,02,20,15,41,9.10
2014,02,20,15,42,9.00
2014,02,20,15,43,9.00
2014,02,20,15,44,9.00
2014,02,20,15,45,9.00
2014,02,20,15,46,9.10
2014,02,20,15,47,9.10
2014,02,20,15,48,9.10
2014,02,20,15,49,9.10
2014,02,20,15,50,9.10
2014,02,20,15,51,9.10
2014,02,20,15,52,9.10
2014,02,20,15,53,9.00
2014,02,20,15,54,9.00
2014,02,20,15,55,8.90
2014,02,20,15,56,8.90
2014,02,20,15,57,8.90
2014,02,20,15,58,8.80
2014,02,20,15,59,8.80
2014,02,20,16,00,8.80
2014,02,20,16,01,8.70
2014,02,20,16,02,8.70
2014,02,20,16,03,8.70
2014,02,20,16,04,8.70
2014,02,20,16,05,8.70
2014,02,20,16,06,8.70
2014,02,20,16,07,8.70
2014,02,20,16,08,8.60
2014,02,20,16,09,8.60
2014,02,20,16,10,8.60
2014,02,20,16,11,8.60
2014,02,20,16,12,8.60
2014,02,20,16,13,8.60
2014,02,20,16,14,8.50
2014,02,20,16,15,8.50
2014,02,20,16,16,8.50
2014,02,20,16,17,8.50
2014,02,20,16,18,8.50
2014,02,20,16,19,8.60
2014,02,20,16,20,8.60
2014,02,20,16,21,8.60
2014,02,20,16,22,8.60
2014,02,20,16,23,8.60
2014,02,20,16,24,8.60
2014,02,20,16,25,8.60
2014,02,20,16,26,8.50
2014,02,20,16,27,8.40
2014,02,20,16,28,8.30
2014,02,20,16,29,8.30
2014,02,20,16,30,8.20
2014,02,20,16,31,8.10
2014,02,20,16,32,8.10
2014,02,20,16,33,8.00
2014,02,20,16,34,8.00
2014,02,20,16,35,7.90
2014,02,20,16,36,7.90
2014,02,20,16,37,7.90
2014,02,20,16,38,7.90
2014,02,20,16,39,8.00
2014,02,20,16,40,8.00
2014,02,20,16,41,8.00
2014,02,20,16,42,8.10
2014,02,20,16,43,8.10
2014,02,20,16,44,8.20
2014,02,20,16,45,8.20
2014,02,20,16,46,8.20
2014,02,20,16,47,8.20
2014,02,20,16,48,8.20
2014,02,20,16,49,8.20
2014,02,20,16,50,8.10
2014,02,20,16,51,8.10
2014,02,20,16,52,8.10
2014,02,20,16,53,8.00
2014,02,20,16,54,8.00
2014,02,20,16,55,7.90
2014,02,20,16,56,7.90
2014,02,20,16,57,7.80
2014,02,20,16,58,7.80
2014,02,20,16,59,7.80
2014,02,20,17,00,7.70
2014,02,20,17,01,7.70
2014,02,20,17,02,7.70
2014,02,20,17,03,7.60
2014,02,20,17,04,7.60
2014,02,20,17,05,7.60
2014,02,20,17,06,7.50
2014,02,20,17,07,7.50
2014,02,20,17,08,7.50
2014,02,20,17,09,7.40
2014,02,20,17,10,7.40
2014,02,20,17,11,7.40
2014,02,20,17,12,7.40
2014,02,20,17,13,7.40
2014,02,20,17,14,7.40
2014,02,20,17,15,7.40
2014,02,20,17,16,7.40
2014,02,20,17,17,7.30
2014,02,20,17,18,7.30
2014,02,20,17,19,7.30
2014,02,20,17,20,7.30
2014,02,20,17,21,7.30
2014,02,20,17,22,7.30
2014,02,20,17,23,7.30
2014,02,20,17,24,7.30
2014,02,20,17,25,7.30
2014,02,20,17,26,7.20
2014,02,20,17,27,7.20
2014,02,20,17,28,7.20
2014,02,20,17,29,7.20
2014,02,20,17,30,7.20
2014,02,20,17,31,7.20
2014,02,20,17,32,7.10
2014,02,20,17,33,7.10
2014,02,20,17,34,7.00
2014,02,20,17,35,7.00
2014,02,20,17,36,6.90
2014,02,20,17,37,6.90
2014,02,20,17,38,6.90
2014,02,20,17,39,6.80
2014,02,20,17,40,6.80
2014,02,20,17,41,6.70
2014,02,20,17,42,6.70
2014,02,20,17,43,6.70
2014,02,20,17,44,6.60
2014,02,20,17,45,6.60
2014,02,20,17,46,6.50
2014,02,20,17,47,6.50
2014,02,20,17,48,6.50
2014,02,20,17,49,6.40
2014,02,20,17,50,6.40
2014,02,20,17,51,6.40
2014,02,20,17,52,6.30
2014,02,20,17,53,6.30
2014,02,20,17,54,6.30
2014,02,20,17,55,6.30
2014,02,20,17,56,6.30
2014,02,20,17,57,6.20
2014,02,20,17,58,6.20
2014,02,20,17,59,6.20
2014,02,20,18,00,6.20
2014,02,20,18,01,6.20
2014,02,20,18,02,6.20
2014,02,20,18,03,6.20
2014,02,20,18,04,6.30